Gustavus, AK

1:20 PM AKDT on March 27, 2017 (GMT -0800)
Gustavus

Weather History for PAGS - March, 2012

Change the Weather History Date:

Saturday, March 10, 2012

  Actual Average Record
Temperature  
Mean Temperature 38 °F -  
Max Temperature 42 °F 37 °F 46 °F (1986)
Min Temperature 35 °F 28 °F -11 °F (1956)
Degree Days  
Heating Degree Days 26    
Moisture  
Dew Point 31 °F    
Average Humidity 73    
Maximum Humidity 87    
Minimum Humidity 61    
Precipitation  
Precipitation 0.00 in - - ()
Sea Level Pressure  
Sea Level Pressure 29.20 in    
Wind  
Wind Speed 9 mph (SE)    
Max Wind Speed 16 mph    
Max Gust Speed 23 mph    
Visibility 10 miles    
Events      
Averages and records for this station are not official NWS values.
T = Trace of Precipitation, MM = Missing Value Source: NWS Daily Summary

Daily Weather History Graph

Daily Weather History Graph

Search for Another Location

Airport or City:

Trip Planner

Search our weather history database for the weather conditions in past years. The results will help you decide how hot, cold, wet, or windy it might be!

Date:

Astronomy

Mar. 10, 2012 Rise Set
Actual Time 6:31 AM AKST 5:55 PM AKST
Civil Twilight 5:51 AM AKST 6:35 PM AKST
Nautical Twilight 5:05 AM AKST 7:21 PM AKST
Astronomical Twilight 4:17 AM AKST 8:10 PM AKST
Moon 10:20 PM AKST (3/10) 6:40 AM AKST (3/10)
Length of Visible Light 12h 43m
Length of Day
11h 24m
Waning Gibbous, 91% of the Moon is Illuminated
Mar 10
Waning Gibbous
Mar 14
Last Quarter
Mar 22
New
Mar 30
First Quarter
Apr 6
Full

Hourly Weather History & Observations

Time (AKST) Temp. Windchill Dew Point Humidity Pressure Visibility Wind Dir Wind Speed Gust Speed Precip Events Conditions
12:16 AM 39.2 °F 31.6 °F 28.4 °F 65% 29.31 in 10.0 mi SSE 12.7 mph 18.4 mph N/A   Overcast
12:36 AM 39.2 °F 32.5 °F 28.4 °F 65% 29.30 in 10.0 mi SSE 10.4 mph 18.4 mph N/A   Overcast
12:56 AM 39.2 °F 32.5 °F 28.4 °F 65% 29.30 in 10.0 mi SE 10.4 mph 18.4 mph N/A   Overcast
1:16 AM 39.2 °F 30.8 °F 28.4 °F 65% 29.29 in 10.0 mi SE 15.0 mph 18.4 mph N/A   Overcast
1:36 AM 39.2 °F 30.5 °F 28.4 °F 65% 29.28 in 10.0 mi SE 16.1 mph 19.6 mph N/A   Overcast
1:56 AM 39.2 °F 32.0 °F 30.2 °F 70% 29.28 in 10.0 mi SE 11.5 mph 23.0 mph N/A   Overcast
2:16 AM 39.2 °F 31.6 °F 30.2 °F 70% 29.27 in 10.0 mi SSE 12.7 mph 20.7 mph N/A   Overcast
2:36 AM 39.2 °F 31.2 °F 30.2 °F 70% 29.27 in 10.0 mi SE 13.8 mph 19.6 mph N/A   Overcast
2:56 AM 39.2 °F 32.5 °F 30.2 °F 70% 29.27 in 10.0 mi SE 10.4 mph 16.1 mph N/A   Overcast
3:16 AM 37.4 °F 28.5 °F 30.2 °F 75% 29.26 in 10.0 mi SE 15.0 mph 21.9 mph N/A   Overcast
3:36 AM 37.4 °F 29.3 °F 30.2 °F 75% 29.25 in 10.0 mi SE 12.7 mph - N/A   Overcast
3:56 AM 37.4 °F 31.4 °F 30.2 °F 75% 29.24 in 10.0 mi SE 8.1 mph - N/A   Overcast
4:16 AM 37.4 °F 32.8 °F 30.2 °F 75% 29.24 in 10.0 mi SSE 5.8 mph - N/A   Overcast
4:36 AM 37.4 °F 30.8 °F 30.2 °F 75% 29.24 in 10.0 mi SE 9.2 mph - N/A   Overcast
4:56 AM 37.4 °F 29.8 °F 30.2 °F 75% 29.24 in 10.0 mi SE 11.5 mph - N/A   Overcast
5:16 AM 37.4 °F 31.4 °F 30.2 °F 75% 29.24 in 10.0 mi SE 8.1 mph - N/A   Overcast
5:36 AM 37.4 °F 32.1 °F 30.2 °F 75% 29.23 in 10.0 mi SSE 6.9 mph - N/A   Overcast
5:56 AM 37.4 °F 30.8 °F 30.2 °F 75% 29.22 in 10.0 mi SE 9.2 mph - N/A   Overcast
6:16 AM 37.4 °F 29.8 °F 30.2 °F 75% 29.22 in 10.0 mi SSE 11.5 mph 16.1 mph N/A   Overcast
6:36 AM 37.4 °F 33.8 °F 30.2 °F 75% 29.22 in 10.0 mi SE 4.6 mph - N/A   Overcast
6:56 AM 37.4 °F 34.9 °F 30.2 °F 75% 29.21 in 10.0 mi SSE 3.5 mph - N/A   Overcast
7:16 AM 37.4 °F 33.8 °F 30.2 °F 75% 29.21 in 10.0 mi SSE 4.6 mph - N/A   Overcast
7:36 AM 37.4 °F 34.9 °F 30.2 °F 75% 29.21 in 10.0 mi SSE 3.5 mph - N/A   Overcast
7:56 AM 37.4 °F - 30.2 °F 75% 29.21 in 10.0 mi Calm Calm - N/A   Overcast
8:16 AM 35.6 °F 30.7 °F 30.2 °F 81% 29.21 in 10.0 mi NNW 5.8 mph - N/A   Overcast
8:36 AM 35.6 °F 29.9 °F 30.2 °F 81% 29.20 in 10.0 mi NNW 6.9 mph - N/A   Overcast
8:56 AM 35.6 °F 30.7 °F 32.0 °F 87% 29.20 in 10.0 mi NNW 5.8 mph - N/A   Overcast
9:16 AM 35.6 °F 30.7 °F 32.0 °F 87% 29.20 in 10.0 mi NNW 5.8 mph - N/A   Overcast
9:36 AM 37.4 °F 32.1 °F 32.0 °F 81% 29.20 in 10.0 mi NNW 6.9 mph - N/A   Overcast
9:56 AM 37.4 °F 32.1 °F 33.8 °F 87% 29.19 in 10.0 mi NNW 6.9 mph - N/A   Overcast
10:16 AM 37.4 °F - 33.8 °F 87% 29.19 in 10.0 mi Calm Calm - N/A   Overcast
10:36 AM 37.4 °F - 33.8 °F 87% 29.19 in 10.0 mi Calm Calm - N/A   Overcast
10:56 AM 39.2 °F - 33.8 °F 81% 29.19 in 10.0 mi Calm Calm - N/A   Overcast
11:16 AM 39.2 °F - 33.8 °F 81% 29.17 in 10.0 mi Calm Calm - N/A   Overcast
11:36 AM 39.2 °F - 33.8 °F 81% 29.17 in 10.0 mi Calm Calm - N/A   Overcast
11:56 AM 39.2 °F - 33.8 °F 81% 29.17 in 10.0 mi Calm Calm - N/A   Overcast
12:16 PM 39.2 °F 35.9 °F 33.8 °F 81% 29.16 in 10.0 mi North 4.6 mph - N/A   Overcast
12:36 PM 42.8 °F 38.6 °F 32.0 °F 66% 29.16 in 10.0 mi SE 6.9 mph - N/A   Overcast
12:56 PM 42.8 °F 37.5 °F 30.2 °F 61% 29.16 in 10.0 mi SE 9.2 mph - N/A   Overcast
1:16 PM 42.8 °F 38.0 °F 30.2 °F 61% 29.15 in 10.0 mi SE 8.1 mph 18.4 mph N/A   Overcast
1:36 PM 42.8 °F 37.0 °F 30.2 °F 61% 29.14 in 10.0 mi SE 10.4 mph - N/A   Overcast
1:56 PM 42.8 °F 36.6 °F 30.2 °F 61% 29.14 in 10.0 mi SE 11.5 mph - N/A   Overcast
2:16 PM 41.0 °F 33.1 °F 30.2 °F 65% 29.14 in 10.0 mi SE 15.0 mph - N/A   Overcast
2:36 PM 41.0 °F 34.3 °F 30.2 °F 65% 29.14 in 10.0 mi ESE 11.5 mph - N/A   Mostly Cloudy
2:56 PM 41.0 °F 33.9 °F 30.2 °F 65% 29.14 in 10.0 mi SE 12.7 mph 19.6 mph N/A   Mostly Cloudy
3:16 PM 41.0 °F 33.5 °F 32.0 °F 70% 29.14 in 10.0 mi ESE 13.8 mph 18.4 mph N/A   Scattered Clouds
3:36 PM 41.0 °F 34.7 °F 32.0 °F 70% 29.14 in 10.0 mi SE 10.4 mph - N/A   Mostly Cloudy
3:56 PM 41.0 °F 35.8 °F 32.0 °F 70% 29.14 in 10.0 mi SE 8.1 mph - N/A   Overcast
4:16 PM 41.0 °F 35.2 °F 32.0 °F 70% 29.14 in 10.0 mi SE 9.2 mph - N/A   Mostly Cloudy
4:36 PM 41.0 °F 37.1 °F 32.0 °F 70% 29.14 in 10.0 mi SE 5.8 mph - N/A   Overcast
4:56 PM 41.0 °F 35.2 °F 30.2 °F 65% 29.14 in 10.0 mi SE 9.2 mph - N/A   Mostly Cloudy
5:16 PM 39.2 °F 35.9 °F 32.0 °F 75% 29.13 in 10.0 mi SSE 4.6 mph - N/A   Scattered Clouds
5:36 PM 39.2 °F 35.0 °F 32.0 °F 75% 29.13 in 10.0 mi South 5.8 mph - N/A   Overcast
5:56 PM 39.2 °F 35.0 °F 32.0 °F 75% 29.13 in 10.0 mi SSE 5.8 mph - N/A   Overcast
6:16 PM 39.2 °F 35.9 °F 32.0 °F 75% 29.13 in 10.0 mi ESE 4.6 mph - N/A   Overcast
6:36 PM 39.2 °F - 30.2 °F 70% 29.13 in 10.0 mi Calm Calm - N/A   Overcast
6:56 PM 37.4 °F - 32.0 °F 81% 29.13 in 10.0 mi Calm Calm - N/A   Overcast
7:16 PM 37.4 °F - 33.8 °F 87% 29.14 in 10.0 mi Calm Calm - N/A   Overcast
7:36 PM 37.4 °F 34.9 °F 33.8 °F 87% 29.14 in 10.0 mi NW 3.5 mph - N/A   Overcast
7:56 PM 35.6 °F - 33.8 °F 93% 29.14 in 5.0 mi Calm Calm - N/A   Overcast
8:16 PM 35.6 °F 31.7 °F 32.0 °F 87% 29.14 in 10.0 mi NNW 4.6 mph - N/A   Mostly Cloudy
8:36 PM 35.6 °F - 32.0 °F 87% 29.13 in 10.0 mi Calm Calm - N/A   Overcast
8:56 PM 33.8 °F 29.6 °F 32.0 °F 93% 29.13 in 10.0 mi NNW 4.6 mph - N/A   Mostly Cloudy
9:16 PM 33.8 °F - 32.0 °F 93% 29.13 in 10.0 mi Calm Calm - N/A   Mostly Cloudy
9:36 PM 33.8 °F - 30.2 °F 87% 29.13 in 10.0 mi Calm Calm - N/A   Mostly Cloudy
9:56 PM 33.8 °F 30.8 °F 30.2 °F 87% 29.13 in 10.0 mi NW 3.5 mph - N/A   Overcast
10:16 PM 33.8 °F - 30.2 °F 87% 29.13 in 10.0 mi Calm Calm - N/A   Overcast
10:36 PM 33.8 °F 29.6 °F 30.2 °F 87% 29.13 in 10.0 mi NW 4.6 mph - N/A   Overcast
10:56 PM 33.8 °F 30.8 °F 30.2 °F 87% 29.13 in 10.0 mi WNW 3.5 mph - N/A   Overcast
11:16 PM 33.8 °F 28.6 °F 30.2 °F 87% 29.12 in 10.0 mi NNW 5.8 mph - N/A   Mostly Cloudy
11:36 PM 33.8 °F - 30.2 °F 87% 29.12 in 10.0 mi Calm Calm - N/A   Mostly Cloudy
11:56 PM 33.8 °F 28.6 °F 30.2 °F 87% 29.12 in 10.0 mi NNW 5.8 mph - N/A   Overcast